Dickinson, ND

12:45 PM MDT on July 20, 2017 (GMT -0600)
Dickinson Municipal

Weather History for KDIK - May, 2014

Change the Weather History Date:

Wednesday, May 7, 2014

  Actual Average Record
Temperature  
Mean Temperature 41 °F 50 °F  
Max Temperature 47 °F 64 °F 93 °F (1992)
Min Temperature 34 °F 37 °F 14 °F (1929)
Degree Days  
Heating Degree Days 24 15  
Month to date heating degree days 135 112  
Since 1 July heating degree days 8748 8174  
Cooling Degree Days 0 0  
Month to date cooling degree days 0 0  
Year to date cooling degree days 0 1  
Moisture  
Dew Point 37 °F    
Average Humidity 88    
Maximum Humidity 96    
Minimum Humidity 79    
Precipitation  
Precipitation 0.32 in 0.06 in 1.15 in (1970)
Month to date precipitation 0.40 0.47  
Year to date precipitation 2.26 3.26  
Sea Level Pressure  
Sea Level Pressure 29.86 in    
Wind  
Wind Speed 13 mph (NNW)    
Max Wind Speed 23 mph    
Max Gust Speed 32 mph    
Visibility 8 miles    
Events Rain    
T = Trace of Precipitation, MM = Missing Value Source: NWS Daily Summary

Daily Weather History Graph

Daily Weather History Graph

Search for Another Location

Airport or City:

Trip Planner

Search our weather history database for the weather conditions in past years. The results will help you decide how hot, cold, wet, or windy it might be!

Date:

Astronomy

May. 07, 2014 Rise Set
Actual Time 5:27 AM MDT 8:09 PM MDT
Civil Twilight 4:52 AM MDT 8:44 PM MDT
Nautical Twilight 4:08 AM MDT 9:28 PM MDT
Astronomical Twilight 3:17 AM MDT 10:19 PM MDT
Moon 12:50 PM MDT (5/7) 1:54 AM MDT (5/7)
Length of Visible Light 15h 51m
Length of Day
14h 42m
First Quarter, 56% of the Moon is Illuminated
May 7
First Quarter
May 14
Full
May 21
Last Quarter
May 28
New
Jun 5
First Quarter

Hourly Weather History & Observations

Time (MDT) Temp. Windchill Dew Point Humidity Pressure Visibility Wind Dir Wind Speed Gust Speed Precip Events Conditions
12:44 AM 46.9 °F - 44.1 °F 90% 29.75 in 7.0 mi North 9.2 mph - 0.00 in Rain Light Rain
12:56 AM 46.9 °F - 44.1 °F 90% 29.77 in 5.0 mi North 8.1 mph - 0.00 in Rain Light Rain
1:56 AM 46.0 °F 40.6 °F 44.1 °F 93% 29.77 in 4.0 mi NNW 11.5 mph - 0.01 in Rain Light Rain
2:56 AM 46.0 °F 41.0 °F 43.0 °F 89% 29.76 in 5.0 mi North 10.4 mph - 0.01 in Rain Light Rain
3:17 AM 46.0 °F 40.6 °F 43.0 °F 89% 29.75 in 5.0 mi North 11.5 mph - 0.01 in Rain Light Rain
3:56 AM 43.0 °F 36.8 °F 41.0 °F 93% 29.78 in 3.0 mi North 11.5 mph - 0.04 in Rain Light Rain
4:40 AM 42.1 °F 35.2 °F 39.9 °F 92% 29.76 in 1.8 mi North 12.7 mph 23.0 mph 0.02 in Rain Light Rain
4:56 AM 41.0 °F 33.9 °F 39.9 °F 96% 29.79 in 1.5 mi NNW 12.7 mph - 0.02 in Rain Light Rain
5:42 AM 39.9 °F 31.4 °F 37.9 °F 93% 29.77 in 3.0 mi NNW 16.1 mph - 0.01 in   Overcast
5:56 AM 39.9 °F 31.4 °F 37.9 °F 93% 29.80 in 7.0 mi NNW 16.1 mph 24.2 mph 0.01 in Rain Light Rain
6:51 AM 39.2 °F 31.2 °F 37.4 °F 93% 29.80 in 10.0 mi North 13.8 mph 23.0 mph 0.00 in Rain Light Rain
6:56 AM 39.9 °F 32.9 °F 37.9 °F 93% 29.83 in 10.0 mi NNW 11.5 mph - 0.00 in Rain Light Rain
7:56 AM 39.0 °F 31.0 °F 37.9 °F 96% 29.84 in 3.0 mi North 13.8 mph - 0.05 in Rain Rain
8:56 AM 39.0 °F 29.9 °F 37.0 °F 93% 29.84 in 9.0 mi North 17.3 mph - 0.01 in Rain Light Rain
9:56 AM 39.0 °F 30.6 °F 36.0 °F 89% 29.86 in 7.0 mi North 15.0 mph - 0.03 in Rain Rain
10:56 AM 39.9 °F 30.8 °F 37.0 °F 89% 29.86 in 7.0 mi North 18.4 mph 24.2 mph 0.09 in Rain Light Rain
11:56 AM 37.9 °F 28.5 °F 36.0 °F 93% 29.90 in 10.0 mi NNW 17.3 mph 26.5 mph 0.01 in Rain Light Rain
12:56 PM 37.9 °F 27.9 °F 35.1 °F 89% 29.91 in 7.0 mi North 19.6 mph 25.3 mph 0.04 in Rain Light Rain
1:56 PM 36.0 °F 24.4 °F 33.1 °F 89% 29.93 in 10.0 mi North 23.0 mph 31.1 mph 0.00 in   Overcast
2:22 PM 37.0 °F 26.7 °F 34.0 °F 89% 29.88 in 10.0 mi North 19.6 mph 26.5 mph N/A   Overcast
2:56 PM 37.0 °F 26.2 °F 34.0 °F 89% 29.93 in 10.0 mi North 21.9 mph 27.6 mph N/A   Overcast
3:56 PM 39.0 °F 29.6 °F 35.1 °F 86% 29.93 in 10.0 mi North 18.4 mph - N/A   Overcast
4:56 PM 39.0 °F 31.4 °F 34.0 °F 82% 29.95 in 10.0 mi North 12.7 mph - N/A   Overcast
5:56 PM 39.9 °F 32.9 °F 35.1 °F 83% 29.95 in 10.0 mi North 11.5 mph - N/A   Overcast
6:56 PM 39.9 °F 32.9 °F 34.0 °F 79% 29.96 in 10.0 mi NNW 11.5 mph - N/A   Overcast
7:56 PM 39.9 °F 33.9 °F 33.1 °F 77% 29.96 in 10.0 mi North 9.2 mph - N/A   Overcast
8:56 PM 37.9 °F 33.5 °F 32.0 °F 79% 29.97 in 10.0 mi NNW 5.8 mph - N/A   Overcast
9:56 PM 37.0 °F 32.4 °F 32.0 °F 82% 29.96 in 10.0 mi NNW 5.8 mph - N/A   Mostly Cloudy
10:56 PM 37.0 °F 33.3 °F 32.0 °F 82% 29.99 in 10.0 mi NW 4.6 mph - N/A   Overcast
11:56 PM 35.1 °F 29.3 °F 30.9 °F 85% 29.98 in 10.0 mi NW 6.9 mph - N/A   Mostly Cloudy